Weather in Beverly Hills

United States     34°04′39″N   118°24′14″W
temp.,
°C
wind,
m/s
gust,
m/s
humid.,
%
clouds,
%
prec.,
mm/h
press.,
hPa
HPBL,
m
25 may, wed
wed2523:00+15s228654 0.1 1011264
02:00+15wsw118631 0.0 1011182
05:00+15sw11850 0.0 101092
08:00+17sw118013 0.0 1011199
11:00+19ssw326828 0.0 1012332
14:00+19ssw437238 0.1 1012309
17:00+18sw437740 0.1 1011326
20:00+16sw228649 0.0 1012273
26 may, thu
thu2623:00+16ssw118540 0.1 1013275
02:00+15ssw118535 0.0 1012214
05:00+15s118517 0.0 1013164
08:00+17s117768 0.0 1014231
11:00+19ssw326462 0.0 1014420
14:00+19sw546619 0.0 1014356
17:00+19sw447116 0.0 1014373
20:00+16sw338347 0.0 1015344
27 may, fri
fri2723:00+16sw228396 0.0 1016322
02:00+15sw1183100 0.0 1015244
05:00+15wsw11847 0.0 1015198
08:00+16sw21765 0.0 1016341
11:00+19ssw426516 0.0 1016503
14:00+19sw5466100 0.0 1016442
17:00+19sw5468100 0.0 1014407
20:00+16sw337981 0.0 1014255
28 may, sat
sat2823:00+16ssw2279100 0.0 1014217
02:00+15ssw2282100 0.0 1012251
05:00+15sse228539 0.0 1012293
08:00+16se227883 0.0 1013490
11:00+19s426517 0.0 1012661
14:00+18ssw5370100 0.0 1011485
17:00+18ssw447118 0.0 1009410
20:00+16s11797 0.0 1008201
29 may, sun
sun2923:00+17ese23745 0.0 1008272
02:00+17ese3380100 0.0 1007263
05:00+16se2382100 0.0 1007240
08:00+17s227665 0.0 1009466
11:00+20ssw54656 0.0 1008740
14:00+20sw676511 0.0 1007592
17:00+21sw56440 0.0 1004448
20:00+20wnw24430 0.0 1004188